Retour au catalogue

SCOT-1

SCOT

ActifMilitaireSSO
NORAD 62617·PAYLOAD·🇸🇬 Singapore

Lancé Jan 14, 2025 depuis Vandenberg Space Force Base

Loading…

Prochains Passages (prochaines 24 heures)

TLE

FraisSource: Space-Track

Époque: Sep 13, 2026, 18:35 UTC

1 62617U 25009J   26256.77448216  .00104205  00000-0  94047-3 0  9997
2 62617  97.3796 348.1858 0002231 283.3405  76.7607 15.67814968 93162

Suivez SCOT-1 en temps réel avec AllMySat

Download on the App Store